Wind_Speed
7 8 6 6 5 5 2 4 3 1 3 2 0 2 3 7 6 7 6 7 7 6 4 6 6 8 3 1 2 4 7 9 9 9 8 7 9 8 8 7 8 8 8 6
7 8 8 7 5 3 4 4 3 3 1 2 3 3 1 7 7 10 11 11 10 13 10 10 11 6 1 4 2 3 5 7 7 8 9 9 9 8 8 7 6 8 8 7
12 7 9 8 5 5 4 5 3 0 2 4 3 4 1 6 9 7 12 9 9 10 13 15 16 14 11 10 8 6 6 6 6 9 9 7 7 6 7 8 9 9 9 8
15 12 8 9 8 7 7 1 4 4 3 2 4 7 4 3 6 8 2 2 1 2 4 11 19 21 15 12 7 7 5 5 3 4 5 6 9 8 9 9 9 10 10 9
13 16 16 13 10 7 5 2 3 1 4 4 2 6 8 3 4 5 3 4 3 3 3 4 8 13 17 14 9 5 6 7 4 4 4 6 6 7 7 7 8 9 10 10
13 15 15 16 14 11 6 3 2 2 5 10 1 6 8 2 1 4 4 7 5 2 3 3 7 9 10 13 11 6 4 4 6 6 4 5 5 5 4 5 6 7 8 9
19 16 13 12 12 13 10 10 12 9 8 1 4 6 3 2 3 5 7 7 4 1 4 4 3 1 5 6 6 9 5 4 8 7 6 6 6 4 4 4 5 4 4 7
22 20 23 17 18 14 18 16 12 5 4 6 6 6 3 6 5 7 9 5 3 2 2 4 3 3 3 4 2 6 7 4 4 7 8 8 7 6 6 5 4 5 7 6
20 22 12 21 18 19 14 17 14 11 7 9 4 5 9 6 7 7 7 5 4 3 4 2 6 8 7 6 5 7 8 7 5 3 5 8 11 10 9 9 8 8 9 8
14 13 18 13 20 20 21 15 13 16 8 5 5 7 6 4 5 3 2 4 5 6 9 4 4 3 5 6 5 6 6 7 8 7 5 5 6 9 13 14 12 12 13 14
19 16 10 16 21 27 22 23 17 10 9 6 6 5 2 2 3 6 4 5 5 6 7 7 7 1 2 0 2 3 3 4 4 3 6 7 7 8 10 11 13 14 15 16
24 15 15 18 15 23 24 28 27 22 18 16 14 4 3 2 3 5 5 8 7 7 3 5 7 9 6 4 3 3 2 4 7 9 9 10 10 11 12 11 12 13 16 17
26 17 18 15 12 18 23 22 20 24 20 13 15 11 6 9 5 7 5 4 2 4 5 9 11 11 9 8 6 6 7 6 7 9 9 11 12 13 12 12 13 15 16 18
25 20 23 19 21 19 23 23 25 24 22 19 18 13 5 8 8 6 7 3 4 5 12 13 13 10 6 6 6 7 6 5 4 5 6 8 10 12 13 14 13 16 18 21
20 24 20 19 10 12 18 20 24 28 29 22 15 19 9 7 7 8 11 10 9 5 17 16 17 13 11 7 7 7 7 6 7 7 8 11 14 16 17 18 18 20 22 27
20 17 19 21 18 13 12 16 19 23 23 22 17 14 16 18 13 12 14 14 12 9 11 19 18 17 12 6 6 5 3 7 8 9 13 16 17 19 20 22 24 27 28 30
20 20 17 21 19 16 18 19 17 18 20 18 20 15 20 17 17 16 17 17 13 11 14 20 21 13 3 4 5 1 6 3 4 6 9 12 15 18 19 22 25 27 28 29
18 19 17 20 17 16 10 16 17 16 17 20 21 17 18 19 21 20 21 19 14 13 14 13 16 20 15 11 9 2 4 5 8 10 11 13 15 16 19 21 23 25 24 24
15 21 17 12 21 7 13 19 19 17 16 20 16 21 21 22 21 19 20 19 17 16 14 14 12 12 14 15 3 5 7 10 10 11 14 16 21 25 26 23 25 24 23 22
16 16 24 19 18 13 12 19 18 16 14 19 19 18 16 17 11 20 23 22 20 17 13 9 6 4 3 4 5 7 8 10 11 14 17 21 28 31 29 27 26 28 25 24
19 17 19 17 22 9 15 22 21 14 12 18 19 17 17 15 21 21 23 21 20 17 13 9 7 6 6 7 10 12 13 16 18 20 24 29 34 35 35 34 31 30 29 26
21 18 19 18 17 9 15 17 16 16 18 15 16 21 23 22 18 18 17 17 15 13 11 9 7 12 19 19 18 20 21 25 27 30 33 36 38 38 37 36 34 33 32 32
14 17 12 16 15 15 17 22 27 23 20 18 18 20 21 18 18 16 16 14 15 15 15 16 18 21 31 36 30 33 30 32 34 38 40 42 40 39 36 34 33 31 30 30
22 22 19 16 16 19 20 25 26 26 18 17 17 19 20 20 20 19 17 15 15 16 17 19 22 24 28 31 29 32 32 35 40 44 45 43 39 36 35 33 33 30 29 29
21 18 17 20 20 22 24 27 26 26 21 18 21 23 21 20 17 13 12 13 13 14 16 19 21 24 27 30 33 36 38 40 43 44 42 39 38 37 35 32 30 28 28 28
26 21 11 14 20 23 26 29 28 26 25 23 21 18 15 12 10 11 12 14 17 19 20 22 24 26 29 31 33 36 38 40 38 35 35 35 35 34 33 33 30 28 27 29
Wind_Direction
204 181 190 166 126 138 138 144 127 60 304 357 60 334 337 346 14 199 167 182 204 208 200 180 112 74 28 291 198 231 228 232 229 234 226 228 227 235 250 250 258 261 269 271
191 196 195 175 165 134 138 147 123 99 24 62 313 323 318 350 351 206 201 180 188 203 223 217 228 241 5 62 271 220 218 218 216 216 221 226 238 235 247 260 257 262 265 265
204 198 195 192 192 180 163 138 124 294 353 56 1 176 44 3 30 172 192 207 208 223 221 223 241 258 265 299 61 299 224 223 208 215 220 228 231 231 234 244 253 262 271 274
218 224 197 195 207 198 191 141 349 305 195 94 347 118 134 72 58 63 93 282 325 355 233 225 231 246 252 247 284 336 229 236 228 219 200 211 227 224 234 248 261 268 271 276
217 215 214 216 215 200 189 192 345 158 189 260 102 276 102 102 102 50 7 301 321 340 167 219 242 259 244 233 239 324 235 231 219 213 183 190 218 227 242 249 264 273 279 282
220 211 206 217 210 213 208 212 236 174 238 235 129 287 149 121 58 28 9 318 283 188 207 288 335 316 277 205 194 195 247 243 222 217 210 186 211 206 227 260 267 279 296 301
217 224 217 202 209 224 214 216 229 216 205 183 132 238 314 310 344 359 352 330 310 275 266 287 350 16 172 177 180 168 162 203 215 224 218 210 213 219 239 279 274 283 324 341
212 214 218 217 211 217 217 224 242 231 232 141 170 235 134 285 293 334 342 335 294 191 299 244 259 283 252 235 207 198 211 170 182 221 228 235 241 243 255 272 297 290 291 311
213 225 208 216 217 210 215 222 233 265 232 275 171 244 286 248 255 295 321 320 311 196 356 257 224 239 254 265 235 203 209 194 190 207 245 250 252 253 257 264 284 299 304 301
224 228 228 226 210 217 216 231 213 231 267 256 192 263 296 261 236 237 235 263 277 290 294 303 240 238 252 256 246 235 218 209 211 223 249 276 271 263 259 264 275 283 291 295
215 213 213 207 212 214 215 220 220 260 228 266 235 161 132 264 262 198 239 251 262 306 295 254 232 244 105 212 335 316 295 273 288 266 258 267 278 284 282 282 281 284 280 287
203 216 220 220 212 209 224 224 225 228 224 243 285 65 142 314 267 197 234 261 275 306 228 187 163 134 135 154 170 230 260 275 267 258 262 267 274 282 289 290 287 287 281 281
197 210 209 201 219 220 216 219 225 229 239 235 240 229 206 269 285 297 260 269 265 213 167 148 143 146 155 163 191 218 242 255 273 280 288 292 292 287 280 277 282 282 279 277
202 214 220 216 227 223 220 223 224 226 226 235 228 245 208 222 275 275 260 201 211 178 180 165 154 146 167 194 192 207 208 215 232 261 289 299 289 284 281 284 285 276 276 273
197 216 221 223 228 220 220 225 223 225 232 241 241 236 210 199 199 224 218 204 205 204 193 190 176 179 184 206 223 231 244 254 252 260 273 277 289 288 283 281 276 276 275 282
210 221 222 225 218 216 219 218 220 226 231 240 241 247 249 245 218 214 230 220 218 227 225 207 199 195 184 196 211 209 266 259 266 269 278 284 289 294 296 289 285 283 281 287
206 216 218 219 210 215 229 218 218 226 221 226 232 238 247 225 212 210 222 221 215 236 237 221 203 189 306 124 276 215 326 299 309 309 309 305 305 311 315 300 297 299 300 298
211 209 210 225 191 213 212 209 211 215 223 230 217 215 228 227 222 213 217 215 215 217 212 214 218 241 194 225 244 342 274 275 302 301 305 303 308 314 318 312 307 304 308 312
199 205 204 197 207 191 209 215 214 213 228 233 217 223 233 235 220 219 218 213 203 203 201 186 160 155 190 208 249 288 279 274 280 287 297 307 314 312 313 310 309 310 313 319
205 198 211 215 230 214 220 203 213 211 220 224 222 225 230 220 185 213 204 196 196 197 202 203 196 204 246 307 314 309 301 291 301 312 308 306 310 311 305 305 304 303 306 311
201 202 205 211 216 187 201 222 206 197 216 224 225 210 197 184 215 217 206 200 203 207 212 223 242 266 281 295 299 296 297 296 301 308 307 306 305 305 303 300 297 296 297 300
197 201 207 214 211 209 225 212 184 217 220 214 209 208 219 219 215 203 207 207 211 220 228 241 283 300 299 288 293 291 292 295 299 308 309 307 305 301 301 298 294 290 289 291
204 200 192 202 205 223 216 207 208 213 221 223 221 218 210 211 211 216 229 223 222 227 237 249 277 300 294 298 294 283 289 294 301 306 306 303 301 300 299 297 294 289 288 286
210 207 207 203 213 218 217 215 217 216 216 215 206 205 210 211 214 215 222 236 250 261 266 270 274 275 265 276 286 295 296 298 297 296 300 302 301 300 297 295 291 289 285 280
216 217 215 223 232 229 222 212 213 209 203 200 199 200 201 206 213 222 233 247 258 268 275 279 284 285 285 287 288 290 293 291 290 293 297 300 300 297 295 291 288 285 283 281
214 220 208 228 235 225 224 206 197 194 194 196 201 204 202 208 219 236 249 261 268 275 279 280 283 284 285 285 287 289 291 293 294 297 299 299 297 294 293 291 287 284 280 277
Height
3216 3219 3218 3220 3219 3220 3221 3222 3222 3223 3222 3221 3222 3222 3222 3219 3218 3218 3219 3220 3221 3222 3223 3223 3223 3222 3220 3219 3219 3220 3221 3222 3222 3223 3224 3225 3226 3225 3225 3226 3225 3225 3226 3226
3218 3217 3219 3219 3220 3221 3221 3222 3223 3224 3222 3222 3223 3222 3221 3219 3217 3217 3218 3219 3220 3220 3221 3222 3222 3221 3221 3221 3220 3219 3219 3220 3221 3222 3222 3223 3224 3225 3224 3225 3225 3225 3225 3225
3215 3216 3217 3219 3221 3222 3222 3224 3225 3224 3223 3223 3221 3222 3222 3220 3218 3215 3217 3219 3219 3219 3220 3220 3220 3219 3220 3220 3222 3220 3220 3221 3219 3220 3221 3222 3224 3224 3224 3223 3223 3224 3224 3225
3215 3215 3216 3219 3221 3221 3221 3221 3222 3222 3222 3220 3221 3216 3221 3221 3221 3219 3219 3219 3218 3218 3218 3218 3217 3215 3217 3220 3221 3220 3219 3220 3220 3221 3220 3221 3222 3222 3222 3222 3222 3222 3222 3223
3213 3213 3215 3217 3220 3220 3221 3220 3221 3222 3222 3222 3221 3219 3219 3221 3222 3222 3220 3219 3218 3218 3217 3216 3215 3214 3215 3218 3220 3219 3218 3219 3220 3221 3219 3220 3221 3221 3221 3221 3221 3222 3221 3222
3210 3209 3213 3216 3216 3218 3219 3221 3222 3222 3221 3218 3221 3221 3217 3220 3221 3221 3219 3217 3217 3217 3216 3215 3215 3214 3214 3215 3217 3218 3218 3218 3219 3220 3220 3220 3221 3221 3221 3221 3221 3220 3220 3220
3206 3208 3209 3211 3215 3216 3218 3220 3216 3217 3216 3214 3221 3222 3216 3220 3219 3219 3218 3216 3216 3216 3215 3215 3214 3213 3213 3214 3215 3216 3217 3217 3218 3220 3220 3221 3222 3221 3221 3221 3220 3219 3219 3219
3201 3204 3205 3208 3211 3215 3216 3217 3214 3214 3210 3210 3221 3217 3216 3218 3217 3216 3216 3215 3215 3216 3216 3215 3214 3213 3213 3214 3215 3215 3217 3218 3217 3219 3220 3221 3221 3221 3220 3220 3220 3219 3219 3218
3197 3200 3199 3205 3208 3212 3213 3215 3216 3213 3215 3214 3212 3216 3215 3215 3216 3215 3216 3214 3214 3215 3214 3213 3214 3214 3213 3214 3214 3214 3215 3217 3218 3219 3220 3219 3219 3219 3219 3219 3219 3219 3219 3217
3195 3197 3197 3201 3204 3206 3208 3212 3214 3214 3210 3211 3208 3214 3213 3213 3214 3214 3215 3214 3213 3213 3212 3213 3212 3213 3213 3213 3214 3214 3215 3216 3218 3218 3219 3218 3218 3218 3218 3218 3219 3219 3218 3216
3192 3194 3195 3197 3196 3201 3205 3207 3209 3208 3208 3205 3205 3205 3210 3212 3212 3213 3212 3212 3212 3212 3210 3210 3211 3211 3212 3213 3214 3215 3215 3216 3217 3217 3217 3217 3217 3217 3217 3217 3217 3217 3216 3214
3187 3190 3190 3192 3193 3196 3198 3201 3204 3205 3207 3209 3205 3205 3207 3209 3210 3211 3210 3210 3210 3210 3209 3209 3210 3211 3212 3213 3214 3214 3215 3215 3216 3215 3215 3215 3215 3215 3215 3215 3214 3214 3214 3214
3183 3184 3187 3189 3193 3193 3194 3197 3199 3200 3202 3200 3204 3204 3204 3206 3207 3208 3208 3209 3210 3209 3209 3210 3210 3212 3213 3214 3214 3215 3215 3215 3215 3216 3215 3214 3214 3214 3213 3212 3212 3212 3210 3210
3179 3180 3181 3181 3184 3188 3191 3193 3196 3198 3198 3200 3200 3202 3201 3203 3205 3205 3206 3208 3209 3210 3210 3210 3211 3212 3214 3215 3215 3215 3215 3215 3215 3215 3214 3214 3213 3212 3210 3210 3210 3208 3207 3204
3175 3176 3179 3181 3182 3184 3185 3189 3191 3193 3194 3194 3196 3198 3198 3201 3202 3202 3203 3205 3207 3208 3209 3208 3208 3209 3211 3215 3215 3215 3215 3214 3214 3213 3212 3212 3210 3209 3208 3207 3206 3204 3202 3199
3171 3173 3175 3177 3180 3182 3183 3184 3186 3189 3191 3192 3194 3195 3195 3196 3198 3199 3200 3202 3204 3205 3207 3207 3208 3208 3210 3212 3214 3213 3213 3213 3212 3211 3210 3210 3209 3208 3207 3205 3202 3200 3197 3196
3167 3170 3172 3172 3176 3179 3181 3181 3184 3186 3188 3191 3192 3191 3190 3192 3194 3195 3196 3198 3200 3202 3203 3204 3204 3208 3210 3209 3211 3209 3209 3210 3209 3209 3208 3207 3207 3206 3205 3202 3199 3196 3193 3191
3163 3166 3168 3168 3173 3174 3174 3176 3181 3184 3184 3184 3186 3186 3187 3188 3190 3190 3192 3194 3197 3199 3200 3201 3202 3203 3204 3211 3209 3205 3206 3206 3206 3206 3205 3204 3203 3202 3201 3198 3194 3191 3189 3186
3159 3162 3165 3166 3167 3169 3170 3173 3175 3177 3180 3180 3182 3182 3182 3183 3185 3187 3190 3192 3195 3197 3198 3198 3201 3203 3204 3206 3204 3204 3203 3203 3203 3202 3201 3201 3200 3198 3196 3194 3190 3187 3184 3182
3155 3158 3161 3162 3161 3164 3164 3167 3170 3173 3176 3176 3177 3178 3179 3182 3186 3185 3187 3190 3192 3194 3196 3197 3199 3202 3201 3201 3200 3199 3199 3199 3198 3197 3196 3195 3194 3192 3190 3188 3186 3181 3179 3176
3150 3153 3156 3157 3158 3160 3160 3162 3165 3172 3174 3171 3173 3175 3177 3182 3184 3183 3185 3188 3190 3192 3193 3194 3195 3196 3196 3196 3196 3195 3195 3195 3194 3192 3190 3189 3186 3183 3181 3180 3179 3175 3173 3170
3146 3148 3150 3152 3154 3156 3156 3159 3165 3165 3165 3167 3169 3171 3172 3174 3179 3181 3184 3186 3188 3189 3190 3191 3192 3193 3193 3192 3191 3191 3189 3188 3187 3185 3182 3180 3178 3175 3172 3170 3169 3168 3165 3163
3141 3142 3144 3149 3149 3150 3151 3154 3156 3158 3161 3163 3166 3167 3169 3173 3177 3179 3182 3183 3184 3185 3186 3186 3186 3184 3185 3183 3183 3183 3181 3179 3178 3176 3174 3172 3168 3166 3163 3161 3159 3158 3156 3154
3132 3136 3139 3143 3144 3146 3148 3149 3152 3155 3157 3160 3162 3165 3168 3170 3173 3175 3177 3179 3180 3180 3180 3180 3178 3177 3179 3179 3176 3174 3173 3171 3169 3167 3164 3160 3157 3156 3154 3152 3150 3148 3146 3145
3129 3133 3134 3137 3139 3141 3143 3145 3148 3151 3154 3157 3159 3162 3165 3167 3170 3171 3173 3175 3175 3176 3176 3175 3174 3174 3173 3172 3171 3169 3166 3164 3161 3158 3153 3149 3147 3145 3144 3142 3140 3138 3136 3134
3125 3128 3133 3133 3135 3137 3139 3141 3144 3148 3152 3155 3158 3161 3163 3166 3166 3168 3169 3170 3171 3171 3170 3169 3168 3167 3166 3164 3162 3159 3156 3153 3150 3147 3142 3140 3137 3135 3133 3131 3130 3129 3127 3124